RH
7 6 5 4 4 3 3 3 4 5 6 7 7 7 6 7 7 6 4 3 3 3 4 4 4 5 5 5 4 4 4 3 3 2 3 5 8 11 14 15 17 20 21 22 29 34 36 39 40 40 44 49 54 60 61 56 60 68 66 69 78 83 88 83 78 80 81 76 68 65 64 58 50 44 40 35 32 27 21 15 10 8 7 9 9 8 9 8
8 7 6 5 4 4 3 3 3 3 4 5 6 7 7 7 7 7 7 5 3 3 3 4 4 5 5 5 5 5 4 4 3 3 2 3 5 7 10 14 15 17 20 22 26 29 31 33 35 38 42 48 56 60 61 56 58 68 63 67 82 86 88 86 83 84 82 78 72 69 71 66 54 47 43 40 35 28 24 17 10 6 6 8 8 10 9 7
9 8 8 6 6 5 4 4 3 3 3 3 4 5 6 7 7 7 8 7 6 4 3 3 4 4 5 5 5 5 5 5 4 4 3 2 3 4 6 10 14 16 18 19 20 22 24 26 27 31 37 45 55 59 61 57 57 65 62 66 79 81 86 89 87 88 85 82 79 76 77 73 61 54 49 42 34 29 26 20 13 7 5 7 8 10 9 8
9 8 8 7 6 5 4 4 3 3 3 3 3 3 5 6 7 7 8 8 8 7 4 3 3 3 4 4 5 5 5 5 5 4 3 3 2 3 4 6 11 14 16 17 18 20 21 24 26 30 37 43 52 59 63 60 59 64 62 65 71 73 82 86 87 88 87 86 84 82 78 70 63 60 49 36 32 29 28 26 18 10 6 6 7 9 9 8
10 9 9 8 7 6 5 4 4 4 3 3 3 3 3 4 6 8 8 9 9 9 7 5 3 3 4 4 4 5 5 5 5 5 4 4 3 2 3 4 8 11 14 15 18 21 21 24 26 32 42 48 53 59 64 62 61 66 65 67 69 72 79 82 84 87 89 88 83 82 76 65 62 57 41 35 40 33 27 26 20 12 8 7 6 8 9 7
11 10 9 9 8 7 5 5 4 4 4 3 3 3 3 3 4 7 9 10 10 10 10 7 5 3 3 4 4 4 5 5 5 5 5 4 4 3 3 4 5 9 12 13 18 21 22 24 26 32 42 51 54 55 64 65 63 69 68 69 71 73 78 80 84 86 88 88 82 80 75 64 60 54 37 31 37 31 25 24 16 12 9 7 6 7 8 8
12 11 10 9 8 7 6 5 5 4 4 3 3 3 3 3 3 5 9 11 11 11 12 11 8 5 3 3 4 4 4 5 5 5 5 5 4 4 3 3 4 7 10 11 17 22 23 24 25 32 37 45 53 54 64 70 66 69 70 68 71 75 78 79 83 86 90 92 86 79 73 66 62 58 43 30 26 22 23 23 15 10 9 8 8 7 7 8
12 11 10 10 9 7 6 5 5 4 4 4 4 3 3 3 3 3 6 9 12 12 13 14 11 7 5 3 3 4 4 4 5 5 5 5 5 5 4 3 4 5 8 9 14 20 24 25 25 29 31 36 49 55 64 72 70 70 71 68 70 74 74 76 83 88 91 91 85 79 74 69 67 62 50 36 25 19 20 22 16 9 8 8 8 8 8 8
12 11 10 10 9 8 7 5 5 4 4 4 4 4 3 3 3 3 3 5 9 13 15 16 15 11 7 5 4 4 5 4 5 5 5 5 5 5 4 4 3 4 6 8 11 16 20 24 24 25 26 29 43 53 60 68 71 71 72 71 71 71 69 76 87 90 89 84 80 80 74 70 68 64 57 44 27 16 18 22 20 11 8 8 7 8 8 7
12 11 11 10 9 8 7 6 5 4 4 4 4 4 3 3 3 3 3 3 5 10 15 17 18 15 10 7 5 4 5 4 4 5 5 5 5 5 5 4 4 3 5 6 9 13 17 22 23 23 23 25 35 46 55 68 77 77 77 76 73 69 65 75 85 86 88 85 81 79 74 71 69 63 59 52 32 18 17 20 22 17 10 7 6 8 8 8
13 12 11 10 9 8 7 6 5 4 4 4 3 3 3 3 3 3 3 3 3 7 13 17 20 20 15 9 6 5 5 5 5 4 5 5 5 5 5 5 4 3 4 6 8 11 16 19 21 22 20 22 29 37 53 72 80 83 86 83 76 70 63 71 82 83 85 87 86 83 76 72 72 68 62 56 39 24 19 17 21 21 14 9 6 7 8 9
13 12 11 10 9 8 7 6 4 4 3 3 3 3 3 3 3 3 3 3 3 5 10 16 20 23 20 13 8 6 6 6 5 5 5 5 5 5 5 6 5 4 3 4 7 9 13 17 19 21 19 22 26 31 50 69 75 83 91 87 85 83 73 74 85 86 85 89 90 88 82 75 75 73 65 60 47 31 25 18 16 20 18 12 7 6 7 8
13 12 11 10 9 8 7 5 4 3 2 2 2 2 3 3 3 3 3 4 4 4 8 15 19 23 24 18 11 8 7 6 6 6 5 5 5 5 5 6 5 5 4 3 6 7 10 14 17 20 21 24 25 27 44 63 71 80 89 91 91 94 87 78 83 86 86 93 94 88 82 78 80 76 64 60 52 39 32 23 17 17 18 15 9 6 6 7
12 11 10 9 8 6 5 4 3 2 2 2 2 2 2 3 3 3 4 4 5 4 6 13 19 22 26 24 16 10 8 7 7 6 6 5 5 5 5 6 6 6 5 3 5 6 9 12 14 19 21 22 24 27 41 60 70 75 86 96 93 95 94 82 80 84 87 95 96 88 83 81 82 77 65 59 54 43 36 29 22 17 16 17 13 8 6 6
11 10 8 7 5 4 3 2 2 2 2 1 2 2 2 3 3 3 5 6 6 6 6 12 18 22 27 28 21 14 9 8 8 7 7 6 4 5 5 5 6 6 6 4 4 5 8 11 14 18 20 21 24 29 40 53 65 72 83 97 94 92 93 86 82 81 83 90 90 87 89 86 79 74 69 62 56 49 44 36 28 22 17 16 16 12 7 6
10 7 5 4 3 2 2 2 2 1 1 2 1 1 2 3 4 4 5 7 8 7 6 11 17 22 26 29 26 19 12 9 9 9 8 7 6 5 4 5 5 6 6 5 4 5 7 11 13 14 15 19 24 28 37 44 58 72 80 92 95 93 92 89 87 81 78 82 84 85 87 82 75 72 69 65 58 51 47 42 33 28 23 17 17 14 9 7
8 5 3 3 2 2 2 1 1 1 1 2 1 2 2 2 4 6 6 8 10 10 8 10 16 21 26 29 29 24 16 11 11 10 9 7 7 6 5 5 5 6 7 6 5 4 6 10 13 16 17 18 20 24 31 37 51 68 71 78 87 92 92 87 90 89 81 81 85 88 86 81 76 69 65 64 58 50 47 44 37 33 31 24 18 16 13 8
5 3 2 2 2 2 1 1 1 1 1 1 1 2 1 2 4 7 9 9 11 13 10 10 15 23 28 29 30 28 21 15 13 11 10 9 7 7 6 5 5 6 6 6 6 4 6 8 12 20 19 17 19 22 28 33 46 62 67 73 82 90 92 85 91 96 88 85 89 89 88 84 77 66 62 61 56 52 49 46 40 36 36 32 23 17 15 11
4 3 2 2 2 2 2 2 2 1 2 1 2 2 1 2 3 7 12 11 12 14 12 12 17 24 28 29 31 31 25 18 15 13 12 10 8 8 7 6 6 5 6 7 6 5 5 6 10 16 17 17 20 23 28 30 37 52 65 77 85 89 89 82 88 96 92 90 89 86 85 82 76 69 64 60 57 55 53 51 47 41 38 38 33 24 17 14
3 2 2 2 2 2 2 2 2 1 2 2 2 2 2 2 3 8 14 15 14 15 14 14 19 24 28 31 34 33 28 21 17 14 13 11 10 9 8 8 7 6 6 6 7 7 5 6 7 11 16 19 22 24 23 23 26 36 55 76 88 89 85 81 86 94 94 92 86 82 82 80 78 76 70 68 65 61 57 54 49 43 39 38 38 34 24 17
2 2 2 2 2 2 2 2 2 2 2 2 2 2 2 2 4 10 17 20 19 17 16 16 22 28 30 33 36 35 31 23 19 16 14 13 11 10 9 8 8 7 7 6 7 8 6 7 6 8 13 15 21 22 19 24 28 31 42 66 90 94 83 79 82 89 96 93 83 80 84 82 78 78 77 77 75 69 63 57 52 47 42 38 36 37 33 22
2 2 2 2 2 2 2 2 2 2 2 2 2 2 3 3 6 14 21 27 25 21 18 19 26 32 34 36 37 37 33 25 21 17 15 14 12 11 10 9 9 8 7 6 7 8 7 8 6 6 8 10 16 18 20 27 30 31 32 48 79 90 83 83 82 86 97 97 86 82 85 84 79 80 81 78 75 72 68 65 60 54 52 47 38 37 38 29
2 2 2 2 2 2 2 2 2 2 2 3 3 3 3 4 10 19 25 30 30 26 24 26 32 35 37 39 39 39 35 27 22 18 15 14 12 11 10 9 9 8 7 7 7 8 8 8 7 6 6 8 11 15 20 25 30 33 29 36 60 75 86 94 86 86 98 99 90 84 85 86 83 82 81 75 71 71 70 71 67 62 61 57 49 46 43 34
2 2 2 2 2 2 2 2 2 2 3 3 3 3 4 6 14 25 30 31 31 30 30 33 37 38 38 40 41 39 35 28 23 19 16 15 13 12 11 10 9 9 8 8 7 8 9 8 8 7 6 6 8 10 15 21 29 32 30 36 47 61 81 87 81 86 95 96 93 87 86 88 87 85 82 77 73 72 71 72 74 72 69 67 65 62 54 42
2 2 2 2 2 2 2 2 2 3 3 3 4 4 4 8 16 26 31 30 30 29 32 35 37 36 37 39 41 39 35 30 24 20 17 15 13 11 11 10 9 9 9 8 8 9 9 8 9 10 8 6 6 8 9 15 24 28 31 36 38 49 68 76 82 91 95 96 93 91 90 87 86 86 82 77 75 73 69 68 71 69 67 72 75 71 65 57
2 2 2 2 2 2 3 3 3 4 3 4 5 4 5 9 17 25 27 26 27 27 27 30 30 30 34 37 39 39 35 30 25 21 18 15 14 12 10 10 9 10 9 8 9 9 8 10 12 12 9 8 6 6 7 9 16 25 31 34 35 41 54 69 85 92 95 95 89 90 94 89 85 83 78 76 75 73 70 66 65 62 63 69 73 71 70 69
2 3 2 3 2 2 3 3 4 4 4 5 4 5 7 10 17 23 21 19 23 25 23 24 26 28 31 33 36 36 33 30 27 22 19 16 14 12 10 10 10 10 9 9 10 8 8 10 12 12 10 10 7 6 7 6 10 19 24 29 35 40 46 58 77 92 89 81 82 89 91 88 81 75 76 75 72 74 71 66 64 60 61 65 64 67 69 69
3 3 3 3 2 3 3 4 5 4 5 5 5 7 7 11 18 17 16 19 22 23 20 19 24 30 31 30 31 33 32 31 28 23 20 17 15 13 11 10 10 10 9 10 10 9 9 11 11 11 11 12 10 8 7 6 7 11 15 23 31 37 40 43 65 88 78 68 86 93 84 83 76 68 74 73 68 73 73 68 65 61 61 62 59 60 65 64
3 3 4 3 3 3 3 4 5 5 6 5 6 8 7 14 18 11 17 30 27 22 21 19 23 29 31 29 27 30 32 32 30 26 23 19 16 14 12 10 9 9 9 11 12 10 10 11 10 9 11 12 12 10 8 7 7 7 10 17 24 32 37 37 51 71 65 63 84 90 81 81 76 68 69 69 70 74 74 73 69 64 61 59 57 55 58 60
4 5 4 3 3 4 4 6 5 5 6 6 6 8 10 14 15 16 28 36 27 22 23 22 23 26 30 30 26 27 31 32 31 29 25 22 19 16 14 11 10 9 9 11 11 9 10 11 10 9 9 9 11 11 11 9 7 6 7 11 17 26 34 39 43 50 52 56 67 76 81 83 77 73 69 68 73 75 75 76 71 67 63 60 59 55 53 57
4 6 5 4 4 4 6 6 5 5 6 6 7 9 11 11 16 30 37 29 25 26 24 22 24 26 29 30 27 26 28 30 30 29 27 25 22 19 16 13 11 9 9 10 9 9 12 11 10 9 8 7 9 11 13 11 9 8 7 7 11 18 26 36 40 41 45 51 55 57 71 83 73 61 64 70 73 75 76 78 75 70 68 66 63 59 56 58
4 6 5 5 4 4 6 6 5 6 4 5 7 7 13 16 22 36 34 24 28 30 24 23 25 25 27 28 26 24 25 26 27 28 26 25 23 21 19 16 13 11 9 9 8 9 11 10 9 9 8 8 8 9 11 12 12 10 8 6 7 10 16 25 33 37 41 50 51 40 53 82 69 40 50 69 71 73 75 77 78 75 74 71 65 61 61 62
4 6 7 6 4 5 6 6 6 6 4 6 7 7 19 29 28 31 31 28 32 31 26 26 25 26 26 25 24 22 21 22 24 24 24 23 23 21 20 18 16 13 11 9 8 8 9 9 9 9 9 9 8 9 9 10 11 11 11 9 7 7 9 14 19 26 34 43 42 31 41 68 58 31 41 62 68 73 74 75 78 77 77 74 66 61 61 64
4 6 8 6 5 5 6 6 6 6 6 6 7 14 31 40 34 31 34 35 37 36 31 27 26 27 26 24 24 22 19 19 20 22 22 21 20 20 19 18 17 15 13 11 10 8 8 8 8 8 8 9 9 9 8 8 9 10 12 11 11 10 7 8 11 12 19 27 26 29 42 48 39 28 33 48 62 68 71 74 75 75 80 79 72 64 59 61
4 7 10 8 6 5 5 7 6 6 7 5 14 29 38 42 40 38 39 42 44 41 36 32 31 31 30 28 27 24 21 18 18 20 21 20 18 17 17 18 17 16 15 14 12 10 9 8 7 7 7 7 8 9 8 9 9 9 10 10 13 14 10 17 23 12 8 16 14 21 37 36 27 27 28 36 52 59 61 67 70 74 81 83 77 67 62 65
5 8 12 10 8 6 6 7 6 8 9 9 20 30 33 42 47 41 41 49 52 47 41 40 39 37 36 33 30 27 24 22 20 19 21 22 21 17 15 16 16 17 17 16 14 12 10 9 8 8 7 7 8 8 8 9 10 10 9 9 11 11 10 16 23 14 7 14 12 8 18 24 23 26 26 29 41 47 49 55 62 70 79 83 80 71 68 72
6 9 13 12 11 10 8 9 8 8 11 16 22 23 31 49 55 48 47 54 59 56 51 50 47 42 40 37 34 31 28 26 24 22 22 24 24 20 17 16 16 17 17 16 15 14 12 11 10 9 8 8 7 7 7 8 9 10 10 11 9 8 11 12 17 16 10 17 22 10 6 12 17 21 21 23 33 40 42 47 54 64 75 82 83 80 80 83
6 9 13 14 16 15 12 12 11 10 16 24 25 26 41 59 62 59 58 60 64 63 59 59 58 52 47 43 40 36 33 31 29 27 24 23 24 23 20 18 17 17 16 17 16 15 14 13 11 11 9 9 8 7 8 7 7 9 10 10 8 9 12 12 17 17 11 22 33 19 7 7 9 14 16 16 25 35 38 43 51 62 73 79 84 87 91 94
6 9 12 16 21 21 18 18 17 18 24 29 32 40 56 67 71 71 69 71 74 71 68 69 69 64 58 53 51 48 45 42 38 36 31 27 26 25 23 22 20 17 16 16 16 16 16 14 13 13 11 11 10 8 8 7 7 8 8 8 9 11 11 10 16 17 16 31 36 16 7 10 7 8 10 9 16 27 36 42 50 62 71 75 78 85 93 99
7 8 12 17 24 26 24 24 24 26 29 32 36 45 56 64 74 79 78 82 87 83 83 83 80 77 71 65 64 63 61 58 52 48 44 39 35 32 28 26 24 22 18 16 16 16 16 16 15 14 13 13 13 11 10 8 7 7 7 8 8 8 10 10 12 12 16 38 52 38 17 9 7 7 5 6 10 18 29 40 48 58 66 68 72 82 94 100
8 8 10 15 24 29 29 28 29 29 30 34 37 40 44 49 60 71 76 86 93 91 93 95 92 91 87 81 78 76 73 70 65 59 56 50 45 41 37 32 29 27 24 19 17 16 17 17 16 14 14 14 13 13 12 10 10 8 7 8 7 7 10 8 10 12 8 22 59 71 39 8 6 10 6 6 7 9 20 32 42 51 56 61 70 84 95 99
9 8 7 10 17 25 28 29 31 31 29 32 36 39 42 42 45 51 57 68 79 79 83 90 91 92 92 90 88 86 82 80 75 69 64 58 53 49 45 39 34 31 28 25 20 18 17 18 17 15 15 14 13 13 13 12 12 10 9 8 7 8 7 7 18 26 13 8 33 55 39 11 7 11 8 8 8 7 12 21 31 40 48 59 72 85 94 98
10 9 7 7 10 16 23 27 31 33 31 31 33 36 42 43 43 44 44 48 55 57 59 65 69 73 79 81 83 84 83 82 80 75 71 65 60 55 50 44 38 34 32 29 25 21 18 17 17 16 16 16 15 14 13 14 13 11 12 9 8 10 6 6 16 20 17 14 14 24 24 11 8 11 9 9 9 7 8 12 20 28 44 66 77 82 91 97
10 10 8 7 7 11 17 22 26 30 31 32 32 31 34 36 35 36 34 34 38 41 44 49 51 53 58 62 66 72 75 77 78 76 73 69 63 58 54 48 43 38 34 31 29 26 23 20 17 16 16 16 16 15 13 14 14 12 12 11 10 11 8 8 10 10 16 16 10 23 32 14 5 9 9 9 10 9 8 10 13 19 38 66 78 78 86 94
10 11 9 8 8 8 10 13 18 22 25 29 31 30 31 30 28 28 28 26 26 27 33 41 45 46 48 50 53 59 64 68 71 71 71 71 67 60 55 50 46 41 37 33 30 28 27 24 21 20 19 18 17 16 14 13 13 12 12 12 11 11 10 10 10 11 16 12 11 32 35 11 3 9 8 8 9 9 9 8 10 13 25 50 68 73 79 89
10 11 11 10 9 8 8 8 11 15 18 23 26 28 31 31 29 28 28 26 25 24 24 28 33 35 38 41 44 51 58 62 64 62 62 65 66 64 58 52 46 42 39 36 32 29 28 26 24 23 23 21 19 17 14 13 14 13 12 11 11 11 11 11 12 14 16 14 16 23 16 5 6 7 6 8 8 8 10 8 9 11 14 29 45 55 69 84
10 11 11 11 10 10 9 8 8 10 11 14 16 20 25 27 28 29 29 28 29 28 26 25 24 24 25 27 29 35 45 53 58 58 58 58 58 58 58 54 49 42 38 36 33 31 29 27 26 24 22 21 19 17 15 14 14 13 12 12 11 11 11 11 14 14 13 18 21 15 10 10 10 6 6 8 6 7 9 8 8 9 10 17 25 35 55 77
9 10 11 12 12 12 11 10 10 9 8 9 10 12 14 15 18 20 21 24 26 28 29 29 27 25 23 23 22 22 26 32 38 42 45 46 46 47 48 49 49 45 39 35 32 30 29 27 26 25 23 21 19 18 17 16 15 14 14 13 11 11 12 12 14 13 13 19 18 12 13 15 11 9 9 7 5 6 7 8 8 8 8 11 16 24 43 68
9 10 10 11 12 13 13 11 12 11 11 11 10 11 11 11 11 11 11 13 16 19 22 24 26 27 26 24 23 22 21 21 22 24 25 27 29 32 35 38 43 44 40 36 31 29 27 26 25 24 24 23 21 20 18 16 17 16 15 15 13 11 11 11 13 14 14 17 16 14 18 20 18 16 13 10 9 7 5 6 7 7 7 8 11 17 32 57
9 10 10 11 11 13 13 13 13 13 13 13 13 13 13 13 13 12 11 11 11 11 12 14 17 20 23 24 23 23 22 21 20 20 19 19 19 21 23 27 31 35 36 35 33 29 27 26 24 22 21 21 20 19 19 17 16 16 16 16 16 14 13 12 13 13 13 15 15 17 21 23 23 23 19 16 13 10 7 7 6 6 6 6 8 11 20 41
10 10 10 11 11 12 13 13 15 14 14 15 15 15 16 15 15 14 13 13 13 12 11 10 11 12 14 16 17 19 20 20 20 20 19 19 18 17 18 19 21 23 25 26 28 27 26 26 25 23 21 20 18 17 17 16 15 15 15 15 16 16 16 14 14 14 15 14 16 25 31 27 22 22 23 22 18 15 12 9 7 7 6 5 6 7 10 23
11 10 10 11 11 12 12 13 14 15 16 16 16 17 17 17 18 17 16 15 14 14 14 13 12 11 10 10 10 11 12 14 15 16 16 17 17 17 17 16 16 17 17 19 20 21 21 22 21 21 21 19 18 18 16 15 16 15 12 12 14 15 16 16 16 17 17 17 22 31 31 24 22 26 29 27 23 18 15 12 10 9 8 6 5 5 6 10
Wind_Speed
14 14 14 14 15 16 17 19 20 21 22 22 23 23 22 21 20 19 18 18 19 20 20 21 20 19 18 18 19 20 21 22 23 24 23 23 23 23 22 20 19 19 17 16 17 18 17 17 16 15 15 15 14 14 12 12 11 10 9 10 11 11 14 19 16 14 15 14 13 13 13 13 12 12 13 11 10 10 9 9 10 13 14 14 11 7 8 12
15 15 15 15 15 15 15 16 18 19 21 22 23 24 24 23 23 22 20 19 19 20 21 21 21 21 20 20 19 20 20 21 22 23 23 24 24 24 23 22 21 20 19 19 19 19 19 18 18 17 16 16 15 15 14 13 12 11 10 10 11 11 13 16 14 12 15 14 12 12 13 12 12 12 12 12 10 11 10 9 9 12 14 14 13 8 7 11
17 17 17 17 16 16 16 16 16 18 19 21 22 23 24 25 25 24 23 22 21 20 21 21 22 22 22 22 21 21 21 21 22 22 23 24 25 24 24 23 23 22 22 22 21 20 19 18 18 18 18 17 16 16 15 14 14 12 11 10 12 13 13 13 12 12 14 14 12 11 12 12 12 12 12 11 11 12 12 11 10 10 13 14 14 10 8 12
20 20 19 19 18 18 17 17 16 17 18 20 21 23 24 25 26 26 26 25 23 22 21 22 22 23 24 23 23 23 22 22 22 22 23 24 25 25 25 24 24 24 23 22 21 20 19 19 18 18 18 18 18 17 16 16 15 13 11 11 12 13 13 13 12 12 14 15 13 11 11 12 13 13 13 11 10 11 12 13 11 10 11 13 15 12 10 13
23 23 22 21 20 19 18 18 18 17 18 19 21 23 24 25 26 27 27 27 26 24 22 22 22 23 24 24 24 24 25 24 23 22 23 24 25 26 26 25 24 25 25 23 21 20 19 19 18 17 17 18 18 17 16 16 15 14 12 12 12 12 12 12 12 11 13 16 14 11 11 12 13 14 14 13 11 10 11 13 13 12 10 10 13 13 11 13
25 25 24 23 22 20 19 19 19 18 18 19 21 22 24 25 26 27 28 28 28 27 25 23 23 23 24 25 25 26 26 26 24 23 23 23 24 25 27 26 25 25 25 24 22 20 19 19 19 18 18 18 18 17 16 16 16 15 14 13 13 12 12 12 11 11 12 14 12 11 12 12 13 14 15 15 13 11 11 12 13 14 13 9 9 12 12 12
27 26 26 25 23 21 19 19 19 19 19 20 21 22 23 25 27 28 28 29 29 29 27 25 23 23 24 25 26 26 27 26 26 25 24 24 24 25 27 28 27 27 26 25 23 22 21 21 21 20 19 19 19 18 16 15 16 16 16 15 13 12 12 11 11 10 11 13 12 12 13 12 12 12 13 14 13 13 13 13 13 15 15 12 9 10 11 11
27 27 27 26 25 23 20 19 19 19 20 20 21 22 23 25 27 29 29 30 30 29 29 27 25 24 25 26 26 27 27 27 28 27 26 25 24 25 27 28 29 29 27 27 26 25 24 23 23 23 22 22 20 20 19 17 17 17 17 17 15 13 13 11 10 9 12 14 13 12 13 13 11 11 12 13 13 13 14 14 13 15 17 15 11 10 10 11
28 27 27 26 26 24 23 21 19 19 20 21 22 22 24 25 27 29 30 30 31 30 30 29 27 26 25 26 27 27 26 27 29 28 28 27 26 25 26 28 30 30 30 29 28 28 27 25 25 25 25 24 22 22 21 20 19 18 17 17 16 14 13 12 10 9 12 14 13 14 14 14 12 12 12 12 12 13 14 15 13 14 16 16 13 11 10 11
28 28 28 27 27 26 24 23 21 21 21 22 23 23 24 26 28 29 31 31 31 31 31 30 29 28 27 27 27 27 27 27 29 29 29 29 28 27 27 28 30 31 31 31 30 29 28 27 26 26 26 25 24 23 23 22 20 19 17 16 16 15 14 13 12 12 12 13 13 14 15 14 13 13 13 13 13 13 14 15 15 14 15 16 15 13 11 10
29 29 28 28 28 27 26 24 22 22 23 24 24 25 25 26 28 30 31 31 32 31 31 30 30 29 29 28 28 27 27 28 28 29 30 30 30 29 28 28 29 31 32 32 32 31 30 29 27 27 28 26 25 25 25 23 22 21 18 17 17 16 15 14 14 13 13 13 14 15 15 15 14 12 13 13 13 13 13 14 15 14 14 15 15 15 13 10
29 29 29 30 29 28 27 25 23 23 24 25 26 26 26 27 29 31 32 32 32 32 31 31 31 31 31 30 29 28 28 28 28 29 30 31 31 31 30 29 29 31 33 34 34 34 32 30 28 28 27 26 27 28 27 25 24 22 19 18 17 16 16 15 14 13 13 14 15 16 17 17 15 15 14 14 14 13 13 14 15 15 14 15 15 15 14 12
29 29 30 30 30 29 28 26 24 23 24 25 26 27 27 28 29 31 33 33 32 31 31 31 31 32 32 32 30 29 29 29 28 29 31 32 33 33 32 31 30 30 32 34 35 35 33 31 30 28 26 27 28 27 27 27 25 24 22 20 19 17 15 16 17 13 12 13 14 16 18 18 16 17 17 16 16 15 14 14 15 15 14 14 15 14 14 14
29 29 29 30 30 28 27 25 23 23 23 24 26 27 28 29 30 32 33 33 32 31 31 32 32 33 33 33 32 30 30 30 29 30 31 32 34 34 34 33 32 31 31 33 34 34 33 32 30 28 28 27 26 25 25 26 26 25 24 21 21 20 15 16 18 16 13 13 14 15 17 18 18 18 18 17 17 17 15 14 15 15 15 14 15 14 14 14
29 28 28 29 28 27 26 24 22 22 22 23 25 28 30 31 32 33 34 34 32 31 31 32 33 33 33 34 34 32 31 31 30 30 31 32 33 34 35 35 34 32 31 33 34 34 34 32 30 30 28 25 24 26 26 26 26 26 25 22 22 22 17 16 18 17 15 14 15 15 15 18 19 18 19 18 18 18 16 15 15 15 15 15 14 15 15 15
30 28 28 27 27 26 25 24 22 22 22 22 24 28 30 32 33 34 35 35 33 31 31 32 33 34 35 36 35 34 33 32 31 30 30 31 32 33 35 36 35 33 32 32 34 35 35 34 32 30 26 24 25 26 26 26 27 27 27 24 23 23 20 18 18 18 18 16 16 17 18 19 19 19 19 19 19 19 18 17 16 15 15 15 14 15 16 16
30 29 28 27 27 26 25 24 23 22 22 22 24 27 30 33 34 35 35 35 34 32 31 33 34 34 35 36 36 35 34 33 32 31 30 31 31 32 34 36 36 35 33 32 34 36 37 37 34 29 26 25 25 25 26 27 28 28 28 27 25 24 22 21 21 19 19 17 15 17 18 18 18 19 19 19 18 18 18 18 17 16 16 15 14 15 16 16
31 29 28 28 27 27 26 24 24 23 23 23 24 27 30 33 35 36 35 35 35 33 33 33 34 35 36 37 37 36 35 34 34 33 31 31 32 32 33 35 36 36 35 34 34 36 37 37 36 34 31 27 25 24 25 27 29 29 28 27 26 25 24 24 22 20 19 18 16 16 17 16 17 17 17 17 16 16 16 17 17 17 16 15 14 14 15 16
32 30 29 29 28 28 27 25 24 24 23 24 25 27 30 32 34 35 34 35 35 34 34 34 35 36 36 37 36 35 35 36 35 34 33 32 32 31 32 33 34 36 36 35 35 35 37 38 38 38 33 28 26 25 27 31 32 31 30 29 27 27 27 26 23 22 21 19 18 17 17 17 16 15 15 15 14 15 15 16 17 18 17 16 15 14 13 14
32 31 30 30 30 29 27 25 25 25 24 24 26 28 30 31 32 32 32 33 34 34 33 34 35 35 36 36 36 36 36 37 37 36 35 34 33 32 31 32 33 35 36 37 36 35 36 38 38 37 34 31 30 30 30 29 28 28 29 29 28 27 28 27 25 24 23 22 21 20 18 17 16 15 15 14 14 14 15 16 16 18 18 18 17 15 14 14
32 32 31 31 31 30 27 25 25 25 24 24 26 27 28 28 28 28 29 30 31 32 32 33 34 35 36 36 37 37 37 37 38 38 37 36 34 33 33 32 32 34 36 37 36 36 36 37 38 38 39 38 36 34 29 24 23 25 28 29 28 28 29 29 27 26 24 23 24 22 20 19 17 16 15 15 15 15 15 14 15 17 17 17 17 17 15 13
32 32 32 32 31 30 27 25 25 24 24 24 24 25 25 24 24 24 25 26 28 30 31 33 34 35 35 36 37 37 37 38 38 38 38 37 36 36 35 33 33 33 34 35 36 37 37 37 38 40 41 39 37 35 30 26 25 25 28 30 30 32 30 28 28 27 25 24 25 24 22 20 19 18 17 17 17 16 15 14 14 14 12 12 15 16 16 15
32 32 32 32 31 29 27 25 24 23 22 21 21 20 20 20 20 21 22 24 26 28 30 32 33 34 35 36 37 37 37 38 39 39 38 38 38 37 36 35 34 33 33 34 35 36 36 37 39 39 40 39 39 38 35 32 29 27 29 29 30 33 30 29 31 30 26 24 25 25 22 20 20 20 19 19 17 16 15 14 13 12 9 10 12 13 15 17
32 32 31 31 30 28 26 24 22 21 19 18 17 16 17 18 19 20 21 23 25 27 29 30 31 32 34 35 36 37 37 38 39 39 39 39 39 38 38 37 35 33 32 34 34 35 37 39 38 37 39 40 41 40 39 36 33 31 29 30 33 35 35 35 33 30 27 26 25 23 22 22 21 21 20 19 18 17 15 14 15 15 12 11 10 11 15 16
32 31 30 30 28 26 24 22 19 17 15 13 13 13 15 17 19 19 20 22 24 26 28 28 29 31 33 34 35 36 36 37 39 39 40 40 40 40 40 38 36 35 34 34 34 36 38 38 36 37 39 40 40 40 40 39 38 35 32 32 33 34 37 36 32 30 28 27 26 24 23 23 23 24 23 22 20 19 17 17 18 18 15 14 13 13 15 15
32 31 30 29 26 24 21 18 15 13 11 10 10 11 13 16 18 18 19 21 24 26 27 28 29 30 32 33 34 34 35 36 38 39 40 40 40 40 39 39 38 38 36 35 35 37 38 37 37 39 39 39 40 40 41 41 40 38 36 35 33 32 35 35 33 32 30 30 30 27 25 24 25 28 26 25 24 21 20 19 19 17 16 16 16 16 17 16
32 31 30 27 24 21 17 14 11 9 8 8 8 9 12 15 16 17 18 20 23 26 26 28 29 30 31 32 33 33 35 35 37 38 40 40 40 40 39 40 40 38 37 36 37 37 37 37 39 40 39 40 40 40 41 41 41 42 40 36 34 33 35 36 35 35 36 36 32 30 31 26 26 30 28 27 26 22 21 20 18 17 17 17 18 19 19 19
31 30 29 26 22 18 14 11 9 7 7 7 6 7 9 13 15 17 18 19 22 25 26 26 28 29 30 31 31 33 34 35 36 37 39 39 40 40 40 40 40 39 37 36 37 37 36 37 39 39 39 39 39 39 40 40 41 43 40 37 36 35 35 36 37 38 40 37 32 33 34 29 28 30 29 28 27 23 21 21 20 19 18 18 18 19 20 21
30 29 27 23 19 15 12 9 7 5 5 5 4 4 8 12 15 17 18 19 21 24 26 26 27 28 29 29 30 31 32 33 35 36 37 39 39 40 40 40 39 39 38 37 39 39 38 38 39 40 40 40 40 40 39 38 41 41 39 39 39 37 36 36 37 40 40 36 35 36 34 31 30 31 32 30 27 25 23 21 21 20 20 20 19 19 20 21
29 28 25 21 16 13 10 7 5 3 4 4 1 3 7 11 15 17 17 18 21 23 25 27 27 28 28 28 29 30 30 31 33 35 36 38 39 39 39 39 39 38 38 40 41 40 38 39 39 40 41 40 39 38 37 38 40 39 38 41 41 39 37 36 37 40 39 37 37 36 36 35 31 31 34 32 29 27 25 23 23 22 22 21 20 20 20 21
28 26 24 20 15 12 9 6 4 2 3 3 1 4 7 10 14 16 16 17 20 21 25 27 26 26 27 28 28 28 30 31 32 33 34 36 38 39 39 38 39 38 38 40 41 38 37 39 39 39 39 39 37 37 37 38 37 36 38 40 41 41 40 37 37 38 37 36 37 36 37 38 35 33 34 33 30 29 28 26 25 24 24 23 21 20 21 22
27 25 23 19 15 12 9 6 4 2 2 2 2 5 7 10 12 13 15 18 20 21 24 26 26 26 27 27 27 27 28 30 32 33 33 34 36 37 39 38 39 38 37 39 40 38 39 41 39 38 38 37 37 38 38 37 36 37 39 39 39 41 41 40 40 39 37 37 37 36 35 39 40 35 32 33 32 31 30 28 27 26 25 24 22 21 22 23
27 24 22 19 15 12 9 6 4 2 1 2 4 5 7 9 9 10 13 16 19 19 21 24 25 25 25 25 26 27 28 29 30 31 32 33 34 35 37 37 37 38 38 39 39 38 39 40 40 40 39 37 37 38 38 38 38 38 39 38 38 39 41 42 43 41 38 39 39 34 33 39 42 35 31 34 34 32 32 30 28 27 26 25 24 22 22 23
26 23 21 19 15 11 9 6 4 3 2 4 6 6 6 7 8 10 11 13 15 17 19 21 23 24 24 24 25 26 27 28 29 30 31 32 33 33 35 36 35 37 38 37 37 37 38 40 42 41 40 39 38 38 37 37 38 38 39 39 38 38 38 38 40 41 40 41 39 33 32 39 41 35 32 34 34 34 33 31 30 29 28 26 25 24 23 24
25 22 20 18 15 12 9 6 4 4 3 4 6 7 7 8 8 10 11 12 14 16 17 19 21 22 22 22 22 23 25 26 27 29 30 31 32 32 33 34 34 35 36 35 35 37 38 40 42 40 39 39 38 38 37 35 36 38 39 39 39 39 39 35 35 38 37 37 37 35 38 43 40 35 33 33 35 35 34 33 32 30 30 28 27 25 24 25
24 21 19 18 16 12 9 7 5 4 4 3 4 8 9 9 8 9 11 12 14 15 16 17 19 20 20 20 21 22 22 23 24 25 27 28 29 30 32 32 33 33 34 35 35 36 36 39 39 39 39 39 39 39 38 36 37 38 37 38 40 41 40 38 36 36 34 33 36 38 43 44 38 34 35 34 35 35 34 34 33 32 32 30 28 27 26 26
23 20 18 17 17 14 10 8 5 3 5 4 3 8 11 10 7 7 9 11 13 14 15 16 18 19 19 18 19 20 21 22 23 23 24 25 26 28 29 30 31 32 33 34 35 35 36 38 38 39 39 39 39 38 39 39 39 38 37 39 40 38 37 38 36 35 34 31 33 37 43 43 39 38 40 37 35 35 34 34 34 34 33 31 30 29 28 28
22 20 17 17 18 16 12 10 7 4 5 5 5 8 11 10 7 7 8 10 12 13 13 14 15 16 17 17 17 18 19 20 21 22 23 24 24 25 27 28 29 31 32 33 34 34 36 37 37 38 38 38 39 39 40 41 40 39 39 39 38 37 37 37 36 36 35 31 32 38 42 42 41 42 43 41 38 36 35 34 34 34 34 32 31 31 30 29
22 19 17 17 17 16 14 12 9 6 5 5 5 8 11 10 8 8 8 9 11 11 11 12 13 14 15 16 16 16 17 19 19 19 20 22 23 24 25 25 27 29 31 33 33 34 35 35 36 38 38 37 38 39 41 42 41 40 40 39 38 38 38 38 37 38 34 30 34 41 41 40 42 45 42 39 38 37 36 35 35 35 35 33 32 32 32 31
20 18 17 16 15 15 14 13 12 9 6 5 5 6 8 9 9 8 8 9 10 10 10 11 12 14 15 16 16 17 17 17 18 19 19 20 21 22 23 24 25 26 29 31 32 33 34 35 36 37 37 37 38 39 41 41 41 41 41 41 40 40 39 39 40 40 36 30 29 34 41 43 43 43 39 37 38 39 38 37 36 35 35 34 33 33 33 33
19 17 16 15 13 13 13 13 12 10 7 6 5 5 5 6 8 9 8 9 10 9 10 11 11 13 14 15 16 17 17 17 18 19 19 20 20 21 22 23 24 25 26 29 31 33 33 34 36 37 37 37 37 37 39 40 41 42 43 43 41 41 41 40 39 38 38 36 28 25 38 46 41 38 38 36 37 38 39 40 38 36 36 35 34 33 33 34
17 16 16 14 12 11 11 12 12 11 10 8 7 5 4 5 6 7 8 9 10 10 10 10 10 11 12 13 14 15 16 17 18 19 19 20 21 21 21 22 24 25 26 27 29 31 33 34 36 37 37 37 36 36 38 39 40 41 42 42 41 42 43 41 38 37 38 41 37 30 38 44 39 37 38 35 35 36 38 40 40 38 37 36 36 35 33 32
15 15 15 15 12 11 10 10 10 10 10 10 8 6 5 5 5 6 6 7 9 10 10 11 12 12 12 13 13 14 15 17 18 19 20 20 21 22 22 23 24 25 27 27 28 30 32 33 35 37 36 36 36 37 38 38 39 41 42 43 43 43 44 43 41 40 39 41 42 40 42 43 39 38 38 36 36 35 35 38 40 39 38 38 38 36 34 32
13 13 14 14 13 12 10 9 8 8 8 8 8 7 6 5 4 5 5 5 7 9 10 11 12 13 14 14 15 15 16 17 18 19 20 21 22 23 24 24 25 26 27 28 29 30 31 33 34 35 35 36 37 37 38 38 40 41 41 42 43 43 43 43 44 44 42 42 43 40 42 45 41 39 39 38 37 36 35 36 38 39 39 39 39 38 36 34
11 11 12 13 13 12 11 10 8 7 6 6 6 5 5 4 4 4 4 4 4 6 8 10 11 12 13 14 15 16 17 17 17 18 20 22 22 23 24 25 25 26 27 28 30 31 32 33 34 34 34 35 36 37 40 40 40 41 41 42 43 43 43 43 44 44 44 44 42 39 42 46 43 40 40 39 38 37 36 36 37 39 40 40 41 39 38 37
9 9 10 11 12 12 12 11 9 7 5 4 4 4 3 3 2 2 3 3 3 4 4 6 8 9 11 12 13 15 16 17 17 17 18 20 22 23 24 25 25 27 28 28 30 31 33 34 35 35 35 36 37 39 40 40 39 40 42 42 43 43 43 43 43 44 45 45 43 44 47 47 44 42 42 41 40 39 38 37 37 38 40 41 42 42 40 39
7 8 8 9 10 10 11 12 11 9 6 5 4 3 2 1 1 2 2 2 3 3 3 4 5 6 7 9 10 12 13 15 17 17 18 19 20 22 23 24 25 26 27 28 29 30 31 33 35 36 37 37 38 38 39 39 39 40 41 42 43 43 43 44 44 45 46 44 45 47 48 47 45 45 44 43 43 41 40 39 38 38 40 41 43 44 43 42
5 6 7 7 8 9 10 10 10 10 9 7 7 5 3 1 1 2 3 4 4 4 4 5 5 5 6 7 8 9 10 12 14 16 17 18 19 21 22 23 24 25 25 26 27 28 29 31 32 34 35 37 37 37 38 38 39 39 40 41 43 43 44 44 44 45 45 45 47 48 48 47 47 46 45 45 45 44 43 42 41 40 40 41 43 45 45 45
4 4 5 6 6 6 7 7 8 8 8 8 8 8 7 6 4 2 0 3 5 6 7 7 7 7 7 7 8 8 9 10 11 12 13 14 15 17 19 21 22 23 24 25 26 27 28 28 29 31 32 34 35 36 36 37 37 38 39 40 41 43 44 44 44 45 45 45 47 47 47 47 47 46 47 46 46 47 46 45 44 43 41 42 43 45 47 47
3 3 3 4 4 4 5 5 5 6 6 6 7 7 8 8 7 7 6 4 1 3 6 8 8 9 9 8 8 9 9 9 9 10 11 11 12 13 15 17 18 20 22 23 24 26 27 27 28 29 30 31 32 33 34 35 36 37 38 39 39 41 43 44 44 45 45 46 47 46 46 47 47 47 47 47 47 47 48 47 46 45 44 43 44 46 48 49
3 2 2 2 3 3 4 4 3 3 4 4 4 5 6 6 6 7 7 7 6 4 2 3 6 8 9 10 10 10 10 10 10 10 11 11 12 13 14 15 16 18 19 21 22 24 25 26 27 28 29 30 31 31 32 33 33 34 36 37 38 40 42 43 44 44 45 47 46 45 46 47 48 48 47 47 48 48 48 49 48 47 47 46 45 46 48 50
4 2 1 2 2 3 3 3 3 2 2 2 2 3 4 4 5 5 5 6 6 7 6 5 4 3 5 7 9 10 10 11 11 12 12 13 13 14 15 16 16 17 18 19 20 22 24 25 26 27 28 29 29 30 31 31 32 34 35 35 35 38 39 41 43 44 45 46 46 47 48 47 46 47 47 48 49 50 49 49 49 49 48 48 47 47 48 50
Wind_Direction
313 309 303 298 293 290 286 282 279 277 275 273 271 269 266 263 261 260 257 252 247 243 241 240 240 238 234 231 229 226 224 224 224 223 222 222 222 220 216 212 211 213 209 203 200 197 195 192 190 184 176 175 170 166 171 168 151 135 126 112 105 109 133 150 155 158 165 167 160 147 139 136 132 130 126 123 121 114 102 106 122 126 121 118 119 132 160 148
313 310 306 300 295 290 286 281 278 276 274 272 271 270 268 265 261 259 258 255 250 246 242 238 238 238 236 233 231 229 226 224 224 222 220 219 220 219 217 212 212 212 209 206 202 199 197 195 192 187 181 179 176 172 174 172 159 144 138 127 119 119 137 156 165 164 165 169 164 153 146 139 131 125 124 123 121 114 102 100 116 126 123 121 122 125 158 148
314 312 309 304 298 292 286 280 275 272 271 270 269 267 266 265 263 260 258 256 252 248 244 240 237 236 236 233 231 230 228 226 224 222 219 218 218 218 216 212 211 213 212 211 208 204 200 199 196 190 185 182 181 179 177 175 165 154 148 138 131 128 135 152 163 166 168 171 169 164 157 148 138 128 124 124 125 120 110 101 104 121 126 125 123 127 154 145
316 313 310 306 301 294 288 282 275 270 268 268 267 265 264 263 262 260 258 256 254 250 246 243 238 235 235 234 231 230 230 227 224 221 219 217 217 216 215 211 210 212 214 214 214 210 204 202 201 196 191 186 185 184 182 178 168 161 153 141 137 136 138 148 157 165 172 176 174 173 168 154 143 133 125 124 125 126 121 113 106 113 126 128 127 132 154 145
317 315 312 308 303 297 289 283 278 271 266 264 264 264 263 261 260 258 257 255 254 252 248 244 241 236 234 233 232 229 229 228 224 221 219 217 216 215 214 212 209 211 214 213 213 213 209 204 203 200 197 194 190 186 186 181 171 164 157 146 142 140 143 150 158 165 175 182 180 177 171 154 144 137 131 127 126 130 129 123 118 117 119 127 130 136 153 148
317 315 313 309 305 299 291 285 279 274 268 263 261 262 263 262 260 257 255 253 253 251 249 245 242 238 234 233 231 230 228 227 226 222 220 218 216 214 214 212 208 209 212 212 211 213 211 206 204 202 199 198 194 189 187 184 175 170 164 155 147 142 145 149 157 168 178 185 185 178 166 155 150 143 136 133 133 136 129 123 125 123 119 122 129 137 150 148
315 314 312 310 307 301 294 287 281 277 272 266 263 262 262 261 260 258 255 252 251 250 248 246 243 240 236 233 231 230 228 226 225 223 220 218 216 213 213 212 208 208 209 210 209 211 210 206 203 202 200 197 194 189 188 185 179 176 171 163 151 144 145 146 153 166 176 181 185 179 165 159 156 146 138 134 135 136 129 125 128 128 123 123 129 136 144 146
314 312 311 309 307 304 298 291 284 279 275 270 267 266 263 261 259 257 255 252 250 247 246 244 242 240 237 234 231 229 227 224 224 223 220 218 215 213 213 211 209 208 208 207 207 208 209 205 202 201 199 196 193 190 186 186 185 181 175 168 158 150 147 146 148 159 173 176 177 174 166 163 157 146 140 135 135 135 130 128 131 132 128 127 135 139 144 148
313 312 311 309 307 305 301 296 289 282 277 274 271 268 265 261 258 256 255 252 250 247 243 241 240 239 237 235 232 229 226 224 223 222 220 217 214 213 213 212 209 207 207 207 208 209 208 206 204 201 199 195 193 191 185 186 189 184 176 171 164 159 153 148 149 155 168 173 172 171 172 170 160 150 144 139 138 136 133 132 132 135 134 133 139 142 147 154
314 312 311 309 307 304 301 298 293 286 280 278 275 271 266 261 258 256 254 252 249 246 242 239 236 237 236 234 232 229 225 223 222 220 218 217 214 212 213 213 210 208 207 206 207 210 211 209 207 203 200 195 192 192 187 187 189 183 176 173 170 168 161 152 152 155 164 172 175 176 178 176 168 159 152 146 143 140 137 136 135 135 138 140 143 145 148 159
313 312 309 307 305 303 301 298 293 288 283 280 277 271 266 261 258 256 254 252 249 245 241 237 234 233 233 233 231 229 225 222 220 218 216 216 213 211 212 213 210 208 207 206 206 208 210 211 210 208 203 196 193 192 190 190 188 182 177 174 172 174 171 161 158 159 166 175 177 180 185 184 174 164 158 151 146 144 142 138 137 137 139 145 149 151 151 160
312 310 308 306 303 301 299 297 293 287 282 280 275 269 264 260 257 255 254 252 249 245 240 236 232 230 230 231 230 227 225 223 219 217 214 213 212 210 211 213 211 208 207 206 206 208 209 210 211 211 207 199 196 194 191 192 189 183 179 176 176 181 179 170 164 165 171 177 181 185 186 183 177 169 162 155 151 148 146 141 139 139 141 148 154 155 153 154
312 310 308 305 302 300 298 295 291 285 280 276 270 265 261 258 256 254 253 251 249 244 239 235 231 228 227 228 227 225 224 222 218 215 213 211 210 209 210 211 211 209 208 207 208 209 209 209 210 211 209 204 201 197 193 192 191 186 182 180 183 187 184 175 169 166 170 175 185 190 185 180 176 174 168 159 157 154 151 146 141 142 144 148 154 157 154 151
312 311 308 306 303 301 299 296 291 283 277 272 266 262 258 256 254 252 251 250 248 244 238 234 230 228 226 224 223 222 223 222 218 215 212 211 209 208 208 210 209 208 208 208 209 210 210 211 211 211 211 207 203 200 196 195 193 188 186 185 188 188 180 174 173 171 171 176 184 188 186 181 176 175 172 165 161 157 155 152 145 144 146 149 153 157 157 154
314 313 311 308 306 305 303 300 294 285 277 270 263 258 256 254 252 251 250 248 246 243 237 232 229 226 224 222 220 219 220 221 219 215 212 211 209 208 208 209 209 207 206 206 207 208 210 212 211 211 211 206 203 202 199 197 195 191 190 190 190 189 180 173 176 178 178 183 187 185 179 177 178 178 176 171 164 159 157 155 151 148 148 150 153 158 159 158
318 317 315 313 311 310 308 303 296 287 280 271 261 256 253 252 251 250 248 246 244 241 236 230 227 224 223 221 219 217 217 219 218 215 211 210 209 208 208 209 208 207 206 205 205 206 207 211 213 214 211 204 202 202 199 199 196 194 195 193 191 189 186 180 180 185 186 186 192 192 184 182 186 185 180 177 170 164 160 159 157 152 150 152 156 161 163 163
322 322 320 319 317 315 311 306 298 289 282 272 261 255 252 251 250 249 247 244 241 239 235 229 226 224 222 221 218 214 213 215 216 214 210 208 207 206 207 209 208 207 206 204 204 205 206 208 210 214 214 207 203 200 197 198 198 197 198 197 194 191 191 188 184 187 189 188 191 191 191 191 191 188 184 182 177 171 167 164 162 158 155 156 159 163 168 169
325 325 324 324 321 317 312 307 299 291 282 273 263 256 252 250 250 249 246 243 239 237 233 228 224 222 221 219 217 213 210 211 213 213 209 206 206 204 205 208 208 207 205 204 204 204 206 206 206 208 210 207 203 200 198 199 199 198 197 198 199 196 197 193 186 185 186 191 192 190 195 199 194 191 188 188 185 181 176 171 168 165 161 161 161 164 169 173
327 328 328 325 321 317 313 308 300 291 283 275 266 259 255 252 251 249 245 241 237 235 232 227 223 221 220 218 215 211 209 209 210 211 208 204 204 203 203 205 207 207 206 204 203 204 205 205 206 207 207 205 203 200 201 201 199 197 195 196 198 199 200 195 187 185 186 192 197 194 198 202 201 201 199 198 195 190 184 179 175 172 169 166 164 165 167 170
328 329 329 325 321 318 314 307 299 292 285 276 268 263 258 256 254 250 244 239 235 233 230 226 222 220 219 216 213 210 208 207 208 209 206 203 201 200 201 202 204 206 207 205 202 203 205 205 207 207 206 206 206 205 204 200 199 196 196 197 197 201 202 195 190 187 188 194 199 199 203 207 209 210 210 208 203 199 197 192 189 184 178 174 171 167 165 167
330 330 329 325 322 319 314 306 298 293 286 277 270 266 261 257 253 249 243 236 231 230 227 223 219 218 217 214 211 208 207 205 205 207 206 202 200 199 200 200 201 204 206 206 203 203 204 205 206 205 206 206 206 208 204 199 199 196 197 197 197 204 203 197 194 190 190 197 199 199 203 210 214 216 216 211 207 208 210 209 206 197 187 185 181 171 164 165
331 331 329 327 324 320 314 305 298 292 286 279 273 269 263 256 250 244 238 230 226 224 222 220 217 215 215 213 210 207 206 204 203 205 205 202 200 200 199 198 199 201 203 205 205 204 204 204 205 205 207 206 206 208 205 203 201 196 198 197 199 205 202 200 200 193 191 197 198 196 198 207 212 216 218 213 213 215 214 213 209 202 198 200 194 177 167 168
333 333 331 328 324 319 313 306 298 291 285 281 277 270 261 251 242 236 230 223 219 216 216 216 215 214 212 210 208 207 205 203 201 202 203 202 200 199 199 198 199 200 200 202 204 205 205 205 205 206 207 206 207 207 206 206 203 200 199 195 201 206 201 203 203 195 193 194 199 196 192 203 211 214 218 217 219 220 216 213 209 210 212 215 210 192 182 180
336 335 332 329 325 320 314 307 299 292 287 284 279 268 253 239 231 226 222 217 212 210 210 210 211 211 211 209 207 206 205 203 201 200 200 201 199 198 199 199 198 198 198 200 201 203 206 206 205 205 206 206 207 206 205 205 204 205 199 194 202 204 202 205 202 197 197 196 201 197 189 201 209 212 216 216 217 217 213 209 207 212 212 212 215 205 200 196
338 337 336 332 328 323 317 309 300 294 292 288 278 261 242 229 224 221 216 211 206 205 205 205 206 208 208 208 206 206 205 203 201 199 199 200 199 198 199 198 198 197 197 198 198 201 204 205 204 205 206 206 206 206 205 204 203 204 201 201 205 202 203 206 201 198 199 198 201 198 193 201 205 208 213 213 213 212 209 207 207 209 207 203 202 200 204 207
342 342 340 337 332 327 320 311 303 300 298 290 275 255 234 223 218 214 208 204 202 201 200 199 201 203 204 205 204 204 205 204 201 199 198 199 199 199 199 198 199 198 196 196 198 201 201 200 203 206 206 205 206 206 206 205 204 204 203 204 204 202 204 205 202 199 200 201 200 195 197 201 204 207 208 209 212 212 211 212 213 213 211 205 200 197 199 203
346 347 345 341 336 331 325 318 313 310 307 296 277 250 227 217 211 206 201 200 202 200 197 198 199 199 201 202 201 202 204 203 201 199 198 198 198 198 199 200 199 198 197 196 199 201 199 198 203 206 205 206 205 205 206 205 205 206 205 203 203 203 203 204 203 201 204 205 197 194 200 203 207 206 203 207 211 212 215 219 222 220 218 214 208 205 204 204
351 351 349 345 341 336 330 326 325 322 320 309 284 245 216 207 202 197 195 197 199 198 195 197 198 198 200 199 199 201 203 202 201 200 198 197 197 198 199 200 199 197 197 198 202 201 197 199 203 205 206 207 206 206 207 205 207 209 205 203 205 205 204 203 202 204 209 206 195 197 202 205 215 211 206 211 212 211 217 224 228 225 222 223 219 215 214 212
355 355 353 350 345 340 335 333 334 336 336 328 295 228 199 197 195 193 197 197 195 194 194 194 195 197 199 198 198 200 202 202 202 200 198 198 198 198 199 200 199 198 195 198 203 200 196 200 202 204 205 207 206 207 207 205 208 210 206 206 208 207 206 204 203 207 211 205 198 201 201 204 218 216 209 212 212 212 217 222 229 230 228 229 226 223 221 220
359 359 357 354 350 345 341 343 345 349 354 353 338 183 184 190 189 190 200 200 193 192 193 194 195 196 196 197 198 198 199 200 201 200 199 198 198 198 200 199 199 199 197 200 203 199 197 201 202 204 206 207 207 207 207 207 209 209 206 208 209 209 209 207 206 209 211 208 204 204 201 203 215 218 212 211 211 213 216 219 226 229 230 232 229 227 225 224
2 2 0 358 356 352 350 356 360 360 6 16 79 158 170 182 191 193 196 196 194 193 193 193 195 196 195 195 196 197 198 199 199 199 199 199 198 198 199 199 199 200 200 202 202 198 199 202 202 203 205 206 207 207 208 208 208 207 208 209 209 211 212 211 211 211 210 210 209 209 206 206 215 218 213 211 211 214 216 218 222 225 228 231 230 227 226 227
4 5 5 2 1 358 357 7 13 11 20 37 104 149 164 177 195 197 190 191 194 194 194 193 193 196 197 196 194 195 197 198 198 197 198 198 198 199 199 199 200 200 202 204 202 199 201 203 203 203 204 204 205 207 209 209 207 207 209 209 209 211 213 214 216 213 210 210 211 213 209 209 217 220 215 213 214 215 216 217 219 222 226 229 230 228 225 226
4 7 8 6 6 4 3 12 21 39 87 98 117 143 169 180 190 189 186 195 197 194 195 194 192 196 199 198 196 195 197 199 199 198 197 197 198 198 199 200 201 202 204 204 203 202 202 203 204 204 204 203 204 206 207 207 208 209 210 209 209 211 212 215 218 216 213 213 213 212 210 213 220 220 216 215 215 215 215 216 219 221 223 227 230 230 227 226
5 9 11 9 10 10 8 13 30 54 104 132 132 145 168 175 178 183 187 195 196 194 195 193 192 196 198 198 198 198 199 200 200 199 198 198 197 197 199 200 202 204 205 205 206 204 204 204 205 205 204 203 205 207 206 206 207 209 211 210 209 211 212 216 221 221 219 220 218 212 213 220 222 219 217 215 215 215 215 216 218 219 220 224 228 231 231 230
7 9 12 12 14 17 14 15 35 63 91 135 143 151 166 166 171 181 183 185 190 193 193 190 192 195 198 200 199 200 202 202 203 203 201 200 199 198 199 200 202 204 204 206 208 206 206 207 205 205 205 204 205 208 207 206 208 210 212 211 210 211 210 211 219 221 220 224 224 215 216 223 221 217 218 216 215 217 215 214 216 217 218 221 226 231 233 232
9 12 14 16 19 21 19 17 26 70 82 96 150 161 164 160 165 176 177 179 185 189 187 186 189 192 196 199 199 200 202 203 205 206 205 203 202 200 200 201 203 204 204 206 206 206 209 210 207 206 206 205 206 207 206 206 208 210 212 213 214 214 212 211 217 219 216 220 224 219 220 225 224 220 219 216 215 216 215 213 213 215 217 219 224 230 233 232
12 16 18 22 27 28 28 26 19 53 81 83 155 165 157 150 153 168 174 177 181 183 183 182 186 190 192 195 199 199 199 202 204 206 206 206 205 203 202 201 202 204 205 206 206 206 209 211 210 209 208 207 206 207 207 207 209 209 209 213 215 216 216 216 218 220 216 217 223 223 223 225 225 224 221 216 214 215 213 212 211 212 214 217 222 227 231 232
14 20 22 27 34 34 37 42 36 43 85 107 145 157 149 141 144 158 168 178 182 182 181 180 181 185 187 189 195 198 199 201 204 206 207 208 208 206 204 203 203 204 204 205 206 206 208 211 212 211 211 209 207 208 209 209 208 210 211 212 213 214 216 216 217 220 216 213 221 226 225 223 222 224 221 216 213 213 213 211 209 210 211 215 219 224 228 230
15 23 27 32 39 39 42 50 54 57 80 109 131 147 145 137 139 152 163 176 183 184 184 179 177 180 183 185 188 194 198 200 203 206 208 210 212 211 209 206 204 205 205 205 205 204 207 211 213 212 213 212 210 210 211 210 208 211 213 214 213 213 216 214 215 218 214 212 223 229 228 224 223 224 222 217 215 214 214 212 209 209 210 213 218 222 225 226
17 24 29 35 42 44 46 54 61 67 77 93 114 141 147 142 143 148 157 173 181 184 185 184 182 183 185 187 189 192 197 199 201 202 205 208 212 214 213 210 207 207 207 206 205 203 205 211 214 213 214 215 212 211 212 211 210 211 213 214 213 214 217 217 216 216 211 208 221 233 233 227 225 226 223 219 217 214 214 214 211 209 210 214 219 221 224 225
19 26 31 37 45 48 51 57 62 68 76 83 99 129 150 153 152 151 157 169 177 183 188 190 191 189 188 191 195 197 199 201 203 203 203 206 209 212 214 212 209 208 208 208 207 205 204 209 213 214 214 216 214 212 213 214 213 214 215 216 214 214 218 219 221 221 216 210 211 226 233 228 226 229 227 223 220 215 213 215 213 212 212 215 219 220 223 226
20 27 33 39 48 52 57 62 63 66 72 76 85 110 137 155 160 162 167 172 177 185 190 194 200 200 196 197 200 201 202 205 207 207 207 208 209 211 213 213 211 209 209 209 209 207 206 208 212 214 215 216 216 214 215 215 215 215 216 218 217 217 218 218 219 222 220 217 214 222 233 230 225 229 230 227 224 218 214 215 214 214 214 215 217 219 222 226
21 27 35 42 49 53 57 62 64 67 71 73 75 89 116 140 153 164 173 182 188 192 195 199 203 207 206 206 208 208 209 210 212 212 212 212 212 212 214 214 213 211 210 210 210 209 208 209 212 214 215 215 216 216 216 216 217 216 216 218 218 219 220 219 220 223 221 219 219 224 235 234 226 227 229 228 227 222 217 215 215 215 214 213 216 218 220 224
20 27 36 42 47 54 60 62 65 69 74 76 75 77 90 109 129 147 164 183 195 200 205 208 209 210 211 212 213 214 214 216 217 217 217 217 216 215 216 216 216 214 213 212 211 211 210 210 212 213 215 215 216 216 217 217 217 217 217 218 219 220 221 220 223 225 225 223 220 223 232 233 228 227 229 229 228 225 221 217 214 214 213 212 215 218 219 221
19 27 35 41 45 52 60 64 65 69 74 80 82 81 83 87 98 118 135 154 176 190 201 209 212 214 214 215 215 216 216 217 219 220 221 221 221 219 219 219 219 218 217 216 214 213 213 213 212 213 215 215 215 216 216 217 217 218 217 218 219 220 221 221 222 225 227 227 224 223 230 231 228 228 229 229 230 228 225 220 216 214 214 213 214 217 218 219
16 24 33 41 46 51 57 62 66 67 71 82 92 98 103 101 104 122 134 142 152 162 174 187 199 206 210 213 215 217 216 216 217 219 220 223 224 224 223 222 221 221 220 220 219 217 217 215 214 215 216 216 216 216 216 216 217 218 218 218 219 220 220 221 222 224 227 228 226 227 232 233 231 230 229 230 230 230 229 225 220 216 215 215 215 216 217 218
8 19 29 39 46 51 56 61 66 70 73 79 86 96 116 145 183 196 196 195 189 183 177 173 177 184 189 196 204 210 214 215 217 219 220 223 225 227 227 226 225 224 223 223 223 222 222 221 219 220 220 220 220 219 217 216 217 217 217 218 219 220 221 222 222 224 226 227 228 229 232 234 233 231 231 230 230 230 230 228 225 220 217 217 217 217 217 217
1 15 22 33 41 48 55 59 63 69 73 78 82 82 82 90 213 239 241 237 231 225 217 204 194 188 183 184 187 192 199 205 212 218 221 224 227 229 229 229 228 227 226 225 225 226 226 226 225 225 225 225 225 225 222 220 219 218 217 217 218 219 221 222 223 224 225 227 229 230 232 234 234 233 232 232 231 231 230 229 228 225 221 218 218 218 218 217
352 13 17 27 37 45 56 60 62 67 70 73 80 81 79 79 76 66 339 242 239 237 233 225 216 208 202 200 199 197 196 198 202 209 216 221 226 229 231 230 230 229 228 227 227 227 228 228 228 228 229 229 229 230 229 227 225 222 220 218 218 219 220 222 223 224 225 227 229 230 232 234 234 234 234 233 233 233 232 231 230 228 225 221 219 218 218 218
339 12 16 21 29 40 56 62 63 66 66 64 70 75 76 76 74 70 70 77 135 228 234 235 232 226 219 216 214 214 212 210 210 211 213 217 221 224 227 229 229 230 230 229 228 227 228 228 228 229 230 231 231 232 232 232 230 228 225 222 220 220 220 221 223 224 225 226 228 230 232 233 233 234 234 234 234 234 234 233 232 231 228 224 221 219 219 219
323 353 21 24 23 29 43 49 51 59 63 59 58 61 67 71 70 69 71 74 79 89 126 210 227 230 231 229 227 224 222 222 223 223 222 222 223 223 224 225 227 228 230 230 230 229 229 228 228 229 230 231 232 232 233 233 233 232 230 227 224 223 222 222 223 224 225 227 228 230 232 232 232 233 235 235 235 235 235 235 235 234 232 228 224 221 221 221
312 318 353 27 22 16 21 32 36 30 29 46 48 45 52 61 66 68 72 74 78 82 83 89 111 170 213 225 230 231 231 231 232 232 232 232 231 230 229 227 227 227 228 229 230 230 231 230 229 229 230 231 231 232 233 233 234 234 232 229 228 227 225 225 224 224 226 227 228 230 230 230 232 234 235 236 236 236 235 235 236 237 236 233 229 225 223 222